SCP
0 0 0 0 0 0 0 0 0 0 0 0 0 0 -0 0 0 0 0 0 0 0 0 0 0 0 0 0 0 0 0 0 0 0 0 0 0 0 0 0 0 0 0 0
0 0 0 0 0 0 0 0 0 0 0 0 0 0 0 0 0 0 0 0 0 0 0 0 0 0 0 0 0 0 0 0 0 0 0 0 0 0 0 0 0 0 0 0
0 0 0 0 0 0 0 0 0 0 0 0 0 0 0 0 0 0 0 0 0 0 0 0 0 0 0 0 0 0 0 0 0 0 0 0 0 0 0 0 0 0 0 0
0 0 0 0 0 0 0 0 0 0 0 0 0 0 0 0 -0 0 0 0 0 0 0 0 0 0 0 0 0 0 0 0 0 0 0 0 0 0 0 0 0 0 0 0
-0 -0 -0 0 0 0 0 0 0 0 0 0 0 0 0 0 0 0 0 0 0 0 0 0 0 0 0 0 0 0 0 0 0 0 0 0 0 0 0 0 0 0 0 0
0 0 -0 -0 -0 0 0 0 0 0 0 0 0 0 0 0 0 0 0 0 0 0 0 0 0 0 0 0 0 0 0 0 0 0 0 0 0 0 0 0 0 0 0 0
-0 -0 0 -0 0 0 0 0 0 0 0 0 0 0 0 0 0 0 0 0 0 0 0 0 0 0 0 0 0 0 0 0 0 0 0 0 0 0 0 0 0 0 0 0
-0 -0 -0 -0 -0 -0 0 0 0 0 0 0 0 0 0 0 0 0 0 0 0 0 0 0 0 0 0 0 0 0 0 0 0 0 0 0 0 0 0 0 0 0 0 0
-0 -0 0 -0 0 0 0 0 0 0 0 0 0 0 0 0 0 0 0 0 0 0 0 0 0 0 0 0 0 0 0 0 0 0 0 0 0 0 0 0 0 0 0 0
-0 -0 0 0 -0 -0 0 0 0 0 0 0 0 0 0 0 0 0 0 0 0 0 0 0 0 0 0 0 0 0 0 0 0 0 0 0 0 0 0 0 0 0 0 0
-0 -0 -0 -0 -0 -0 0 0 0 0 -0 0 0 0 0 0 0 0 0 0 0 0 0 0 0 0 0 0 0 0 0 0 0 0 0 0 0 0 0 0 0 0 0 0
-0 -0 -0 -0 -0 -0 0 0 0 0 0 0 0 0 0 0 0 0 0 0 0 0 0 0 0 0 0 0 0 0 0 0 0 0 0 0 0 0 0 0 0 0 0 0
-0 -0 -0 -0 0 -0 0 0 0 0 0 0 0 0 0 0 0 0 0 0 0 0 0 0 0 0 0 0 0 0 0 0 0 0 0 0 0 0 0 0 0 0 0 0
0 -0 -0 0 0 0 0 0 0 0 0 0 0 0 0 0 0 0 0 0 0 0 0 0 0 0 0 0 0 0 0 0 0 0 0 0 0 0 0 0 0 0 0 0
0 0 -0 -0 0 0 0 -0 0 0 0 0 0 0 0 0 0 0 0 0 0 0 0 0 0 0 0 0 0 0 0 0 0 0 0 0 0 0 0 0 0 0 0 0
0 0 0 -0 -0 0 0 0 0 0 0 0 0 0 0 0 0 0 0 0 0 0 0 0 0 0 0 0 0 0 0 0 0 0 0 0 0 0 0 0 0 0 0 0
-0 0 0 -0 -0 0 0 0 0 -0 0 0 0 0 0 0 0 0 0 0 0 0 0 0 0 0 0 0 0 0 0 0 0 0 0 0 0 0 0 0 0 0 0 0
0 0 0 0 0 0 0 0 0 0 0 0 0 0 0 0 0 0 0 0 0 0 0 0 0 0 0 0 0 0 0 0 0 0 0 0 0 0 0 0 0 0 0 0
0 0 0 0 0 0 0 -0 -0 0 0 0 0 0 0 0 0 0 0 0 0 0 0 0 0 0 0 0 0 0 0 0 0 0 0 0 0 0 0 0 0 0 0 0
0 -0 -0 -0 0 0 0 -0 -0 0 0 0 0 0 0 0 0 0 0 0 0 0 0 0 0 0 0 0 0 0 0 0 0 0 0 0 0 0 0 0 0 0 0 0
-0 -0 -0 0 0 -0 0 0 0 0 0 0 0 0 0 0 0 0 0 0 0 0 0 0 0 0 0 0 0 0 0 0 0 0 0 0 0 0 0 -0 0 0 0 0
-0 0 -0 -0 -0 -0 -0 -0 -0 0 0 0 0 0 0 0 0 0 0 0 0 0 0 0 0 0 0 0 0 0 0 0 0 0 0 0 0 -0 -0 0 0 0 0 0
0 0 -0 -0 -0 -0 -0 -0 -0 -0 -0 0 0 0 0 0 0 0 0 0 0 0 0 0 0 -0 0 0 0 0 0 0 0 0 -0 -0 -0 -0 -0 -0 0 0 -0 0
0 0 -0 -0 -0 -0 -0 0 0 0 0 0 0 0 0 0 0 0 0 0 0 0 0 0 -0 0 0 0 0 0 0 0 0 0 -0 -0 -0 -0 -0 -0 -0 -0 -0 -0
0 0 0 0 0 0 0 0 0 0 0 0 0 0 0 0 0 0 0 0 0 0 0 -0 0 0 -0 -0 -0 -0 -0 -0 -0 -0 -0 -0 -0 -0 -0 -0 -0 -0 -0 0
0 0 0 0 0 0 0 0 0 0 0 0 0 0 0 0 0 0 0 0 0 0 -0 -0 0 -0 -0 -0 -0 -0 -0 -0 -0 -0 -0 -0 -0 -0 -0 0 0 0 0 0
0 0 0 0 0 0 0 0 0 0 0 0 0 0 0 0 0 0 0 0 0 -0 -0 -0 -0 -0 -0 -0 -0 -0 -0 -0 -0 -0 0 0 0 0 0 -0 0 0 0 0
Wind_Speed_500mb
29 33 40 46 47 57 47 34 5 17 39 9 8 8 15 14 14 10 9 11 10 20 38 19 30 23 14 46 41 20 12 8 7 16 4 5 3 10 10 8 9 7 5 10
23 30 37 49 55 69 62 31 8 21 48 11 10 3 8 15 6 8 9 8 6 8 21 11 11 14 15 38 30 30 15 5 8 4 2 5 7 9 9 7 5 11 10 9
10 22 30 52 63 75 71 20 7 6 30 12 19 4 12 18 31 17 2 12 11 18 22 7 18 16 5 34 34 34 27 6 9 15 9 11 12 17 19 23 16 8 12 3
8 11 30 45 66 88 72 20 12 21 10 17 17 21 15 18 11 8 18 8 23 21 13 7 11 11 6 8 28 17 9 10 9 2 3 4 9 18 19 35 30 21 11 18
18 24 27 45 73 99 71 24 15 17 5 22 26 30 20 30 10 13 17 24 30 19 22 34 20 19 13 13 8 11 2 5 6 4 3 7 9 19 25 29 13 18 5 10
25 37 37 45 94 104 44 41 34 37 21 13 22 27 36 37 27 24 19 8 20 15 11 26 36 22 42 24 25 14 15 11 7 7 6 6 18 17 21 14 12 22 26 30
34 44 21 38 91 97 56 66 48 12 7 18 33 36 40 34 45 23 12 47 28 20 47 53 42 39 31 24 12 23 18 14 5 5 5 9 5 5 16 28 18 31 11 13
30 47 21 23 77 101 57 69 42 19 4 19 19 23 45 40 19 3 17 20 22 68 51 17 10 7 9 7 8 8 10 11 6 9 8 12 8 11 17 18 32 29 27 28
27 40 31 8 32 52 59 60 55 28 3 16 31 21 40 21 23 6 4 27 72 42 8 7 10 11 9 11 3 7 11 8 8 6 10 17 11 8 29 15 22 20 41 32
32 37 31 11 4 55 62 40 60 46 2 11 17 24 42 30 15 8 8 21 8 21 6 6 7 6 2 16 23 13 12 4 20 6 7 16 17 18 38 12 11 23 43 49
35 43 30 26 9 16 81 56 48 52 13 8 20 25 41 35 30 18 26 17 2 6 7 6 6 6 10 6 5 15 17 18 10 6 2 24 30 17 25 13 21 13 21 30
29 45 46 30 7 20 34 36 60 66 15 19 46 41 38 35 34 41 39 9 10 15 8 4 7 5 3 7 6 2 7 13 12 20 17 1 46 15 38 16 22 24 35 34
25 34 48 43 22 33 33 49 54 56 31 35 29 39 39 33 42 54 22 13 12 12 12 9 5 8 7 8 8 6 8 9 6 7 6 12 27 53 35 53 48 47 40 29
19 27 29 38 45 28 26 28 13 13 12 9 17 49 37 32 37 30 26 50 33 31 16 9 5 6 8 5 5 7 10 20 11 13 3 9 17 48 57 59 64 59 47 43
15 18 24 21 21 26 45 42 29 10 8 8 10 55 50 32 32 30 24 31 29 17 8 6 2 7 7 3 4 6 19 14 11 12 22 20 29 44 48 58 68 64 55 53
8 14 20 23 15 19 9 11 38 50 33 9 8 13 35 43 41 38 33 33 23 12 9 6 7 6 3 5 7 13 44 39 45 22 9 19 25 26 30 43 53 56 50 55
8 12 17 23 34 24 12 15 14 16 9 9 6 5 13 21 25 31 30 23 19 11 9 7 6 5 7 5 7 4 11 34 39 39 42 44 62 57 55 49 46 45 53 56
6 8 11 16 20 24 23 20 16 13 10 12 7 4 8 12 14 10 11 9 8 12 7 6 4 5 4 8 24 61 29 32 46 73 72 78 81 82 80 76 72 72 74 75
4 8 10 9 7 6 9 12 16 23 11 11 8 8 5 7 10 7 6 7 5 4 4 3 5 1 10 23 40 53 68 55 65 63 58 57 57 77 83 77 75 74 78 74
4 9 8 5 8 6 6 2 6 4 12 12 6 7 6 7 3 3 5 7 2 3 5 4 4 10 56 59 62 71 78 75 68 59 64 55 69 72 74 69 64 65 66 60
3 2 1 1 5 9 9 11 14 14 7 10 7 7 10 5 6 5 4 4 1 4 7 6 5 8 12 27 36 40 48 56 54 48 50 49 56 64 67 71 69 68 67 65
4 2 4 5 6 7 11 4 3 2 5 5 5 7 8 8 6 8 2 6 4 5 1 3 7 10 22 20 28 26 29 34 36 38 42 44 47 49 56 61 61 57 56 53
2 3 4 2 4 9 9 7 3 3 10 14 11 3 6 7 5 10 6 8 7 3 4 8 10 25 40 21 24 26 27 25 26 29 34 40 45 49 54 57 55 57 53 46
4 2 3 9 6 7 8 8 8 8 12 34 24 12 6 5 6 4 8 5 5 5 2 12 6 20 17 25 32 39 40 36 34 32 33 34 39 42 43 44 40 36 39 41
5 5 7 7 6 3 7 12 16 13 42 28 18 12 5 4 7 4 7 7 7 11 10 6 10 7 19 34 42 42 45 47 45 41 39 36 37 38 37 34 34 31 27 32
9 10 3 5 3 4 11 22 14 36 39 21 10 6 7 2 7 5 13 12 14 8 7 21 14 6 34 43 43 48 46 42 43 47 46 43 38 36 36 34 32 33 35 33
13 11 28 31 7 9 16 30 31 49 31 6 7 9 13 6 4 5 10 12 8 12 15 11 21 38 43 46 58 61 52 45 49 51 48 45 43 42 36 31 28 35 35 35
Wind_Direction_500mb
213 215 211 202 196 194 188 169 162 178 183 160 267 160 158 164 268 203 117 102 111 156 169 169 188 196 192 190 167 177 200 133 152 191 181 285 287 180 147 133 204 232 159 274
200 205 206 200 193 197 180 163 128 178 173 173 223 18 173 187 193 272 146 116 125 156 154 158 176 163 207 179 172 171 174 182 112 28 308 347 225 191 166 120 104 196 152 259
222 219 205 202 198 199 193 139 153 197 193 227 187 193 175 184 197 263 234 116 113 106 157 3 169 162 158 179 183 182 153 148 162 187 199 139 192 204 202 205 233 170 215 214
321 262 223 211 202 200 190 166 196 174 181 196 190 173 177 177 158 196 259 78 165 144 143 110 173 134 110 103 185 158 136 174 158 181 346 175 207 193 192 218 227 218 198 197
359 340 294 228 203 199 188 164 152 179 193 163 187 193 193 192 164 150 249 161 181 168 156 191 174 139 154 177 183 142 179 123 116 338 37 2 254 218 217 225 221 228 281 268
331 318 307 234 207 186 184 182 163 167 166 177 181 197 196 196 168 207 214 185 156 188 215 164 171 146 158 160 167 154 145 131 119 217 350 53 283 195 198 199 186 202 226 231
349 339 288 241 207 196 187 166 167 124 166 177 202 200 199 187 198 176 175 177 178 164 147 113 108 84 86 82 51 153 144 127 110 153 49 232 255 313 206 202 203 211 218 208
1 360 358 48 188 198 171 173 177 170 180 214 214 218 202 200 174 59 180 173 177 145 126 106 92 360 40 12 22 68 106 125 115 152 191 302 271 194 169 175 240 217 213 228
13 6 14 185 163 156 175 185 193 191 136 224 211 200 185 174 169 108 63 132 144 163 91 95 148 178 161 173 94 26 97 83 133 117 153 214 246 207 168 104 260 224 206 225
30 15 7 33 219 196 190 191 205 210 201 240 188 183 180 155 130 104 125 150 140 155 105 120 143 193 171 161 165 168 159 112 196 173 216 282 235 174 146 150 242 214 204 223
41 30 32 3 353 209 202 202 198 201 191 307 177 156 156 144 159 158 155 123 104 51 114 130 170 151 204 105 170 172 165 165 183 109 135 262 172 140 173 198 168 155 186 225
43 40 42 30 35 81 176 162 208 213 210 135 103 127 147 163 163 142 164 120 131 152 114 150 121 115 119 145 204 331 208 188 177 190 210 155 182 199 194 193 195 215 232 230
42 44 48 63 91 88 111 124 132 146 145 73 89 85 106 143 156 158 144 147 132 135 137 151 140 126 144 162 233 110 244 203 199 103 240 211 207 212 222 225 241 251 251 233
47 46 47 55 66 72 68 73 76 89 97 99 55 82 93 98 140 138 135 138 124 124 100 82 113 119 196 194 156 184 189 143 168 266 186 350 256 227 230 237 243 251 260 267
59 43 35 43 47 57 62 56 70 87 87 114 106 71 73 99 105 140 131 148 143 115 70 70 174 113 112 3 57 250 186 177 174 228 180 206 255 261 257 251 256 261 268 271
63 42 29 28 11 3 7 71 71 89 102 88 49 58 56 85 106 125 125 142 133 98 99 102 95 120 106 131 219 235 202 214 225 232 252 290 282 283 274 280 279 279 272 267
54 54 40 35 34 39 79 91 41 42 57 109 85 22 30 54 73 79 74 79 75 80 103 62 87 86 89 88 231 177 211 242 245 255 274 276 274 274 281 285 286 281 276 268
69 54 51 45 46 54 63 71 51 42 60 63 100 46 29 37 37 48 45 56 72 50 84 96 106 105 103 250 252 270 269 253 260 264 262 265 275 279 280 283 279 274 272 272
4 2 3 18 32 57 50 58 64 56 72 102 80 122 205 55 55 51 59 50 52 41 81 83 125 257 228 229 239 256 266 252 265 278 275 273 273 277 278 278 278 275 277 281
331 356 358 31 10 4 354 182 172 80 44 58 89 115 79 90 92 70 105 32 88 86 269 351 207 250 251 253 253 263 271 275 277 272 274 270 267 270 277 279 282 281 283 288
254 305 11 36 18 1 30 33 38 351 48 43 82 101 128 137 114 171 38 176 63 79 267 154 279 269 244 272 268 275 278 279 279 280 284 280 276 278 280 281 283 284 283 283
174 145 86 65 16 36 77 12 356 36 170 129 125 112 103 114 99 93 98 116 58 233 158 70 270 255 279 319 324 312 295 285 289 291 290 289 289 290 289 289 288 286 284 283
178 146 137 122 344 37 119 185 266 284 177 164 148 100 105 126 133 78 89 86 207 116 62 231 237 277 321 8 6 358 352 336 321 314 305 297 294 292 290 289 289 287 283 278
241 144 322 153 286 225 185 184 182 156 155 147 134 106 130 118 67 141 95 245 74 51 332 237 249 293 13 22 9 357 351 343 338 332 326 324 320 313 307 304 301 300 290 272
222 156 232 214 191 172 159 146 133 128 144 138 118 82 95 357 80 62 103 43 255 209 230 232 232 50 33 8 352 347 341 330 326 327 325 326 326 323 321 310 307 306 300 290
219 216 194 157 158 198 199 183 151 152 153 124 91 101 65 287 128 90 214 141 221 236 218 253 267 327 341 346 345 336 330 328 323 318 313 317 320 324 324 319 308 297 293 284
201 218 217 193 262 201 184 177 170 163 161 153 131 147 202 103 82 248 190 209 221 215 243 305 311 321 333 334 331 327 323 319 323 323 316 302 306 315 319 323 311 296 289 284
Wind_Speed_850mb
29 33 40 46 47 57 47 34 5 17 39 9 8 8 15 14 14 10 9 11 10 20 38 19 30 23 14 46 41 20 12 8 7 16 4 5 3 10 10 8 9 7 5 10
23 30 37 49 55 69 62 31 8 21 48 11 10 3 8 15 6 8 9 8 6 8 21 11 11 14 15 38 30 30 15 5 8 4 2 5 7 9 9 7 5 11 10 9
10 22 30 52 63 75 71 20 7 6 30 12 19 4 12 18 31 17 2 12 11 18 22 7 18 16 5 34 34 34 27 6 9 15 9 11 12 17 19 23 16 8 12 3
8 11 30 45 66 88 72 20 12 21 10 17 17 21 15 18 11 8 18 8 23 21 13 7 11 11 6 8 28 17 9 10 9 2 3 4 9 18 19 35 30 21 11 18
18 24 27 45 73 99 71 24 15 17 5 22 26 30 20 30 10 13 17 24 30 19 22 34 20 19 13 13 8 11 2 5 6 4 3 7 9 19 25 29 13 18 5 10
25 37 37 45 94 104 44 41 34 37 21 13 22 27 36 37 27 24 19 8 20 15 11 26 36 22 42 24 25 14 15 11 7 7 6 6 18 17 21 14 12 22 26 30
34 44 21 38 91 97 56 66 48 12 7 18 33 36 40 34 45 23 12 47 28 20 47 53 42 39 31 24 12 23 18 14 5 5 5 9 5 5 16 28 18 31 11 13
30 47 21 23 77 101 57 69 42 19 4 19 19 23 45 40 19 3 17 20 22 68 51 17 10 7 9 7 8 8 10 11 6 9 8 12 8 11 17 18 32 29 27 28
27 40 31 8 32 52 59 60 55 28 3 16 31 21 40 21 23 6 4 27 72 42 8 7 10 11 9 11 3 7 11 8 8 6 10 17 11 8 29 15 22 20 41 32
32 37 31 11 4 55 62 40 60 46 2 11 17 24 42 30 15 8 8 21 8 21 6 6 7 6 2 16 23 13 12 4 20 6 7 16 17 18 38 12 11 23 43 49
35 43 30 26 9 16 81 56 48 52 13 8 20 25 41 35 30 18 26 17 2 6 7 6 6 6 10 6 5 15 17 18 10 6 2 24 30 17 25 13 21 13 21 30
29 45 46 30 7 20 34 36 60 66 15 19 46 41 38 35 34 41 39 9 10 15 8 4 7 5 3 7 6 2 7 13 12 20 17 1 46 15 38 16 22 24 35 34
25 34 48 43 22 33 33 49 54 56 31 35 29 39 39 33 42 54 22 13 12 12 12 9 5 8 7 8 8 6 8 9 6 7 6 12 27 53 35 53 48 47 40 29
19 27 29 38 45 28 26 28 13 13 12 9 17 49 37 32 37 30 26 50 33 31 16 9 5 6 8 5 5 7 10 20 11 13 3 9 17 48 57 59 64 59 47 43
15 18 24 21 21 26 45 42 29 10 8 8 10 55 50 32 32 30 24 31 29 17 8 6 2 7 7 3 4 6 19 14 11 12 22 20 29 44 48 58 68 64 55 53
8 14 20 23 15 19 9 11 38 50 33 9 8 13 35 43 41 38 33 33 23 12 9 6 7 6 3 5 7 13 44 39 45 22 9 19 25 26 30 43 53 56 50 55
8 12 17 23 34 24 12 15 14 16 9 9 6 5 13 21 25 31 30 23 19 11 9 7 6 5 7 5 7 4 11 34 39 39 42 44 62 57 55 49 46 45 53 56
6 8 11 16 20 24 23 20 16 13 10 12 7 4 8 12 14 10 11 9 8 12 7 6 4 5 4 8 24 61 29 32 46 73 72 78 81 82 80 76 72 72 74 75
4 8 10 9 7 6 9 12 16 23 11 11 8 8 5 7 10 7 6 7 5 4 4 3 5 1 10 23 40 53 68 55 65 63 58 57 57 77 83 77 75 74 78 74
4 9 8 5 8 6 6 2 6 4 12 12 6 7 6 7 3 3 5 7 2 3 5 4 4 10 56 59 62 71 78 75 68 59 64 55 69 72 74 69 64 65 66 60
3 2 1 1 5 9 9 11 14 14 7 10 7 7 10 5 6 5 4 4 1 4 7 6 5 8 12 27 36 40 48 56 54 48 50 49 56 64 67 71 69 68 67 65
4 2 4 5 6 7 11 4 3 2 5 5 5 7 8 8 6 8 2 6 4 5 1 3 7 10 22 20 28 26 29 34 36 38 42 44 47 49 56 61 61 57 56 53
2 3 4 2 4 9 9 7 3 3 10 14 11 3 6 7 5 10 6 8 7 3 4 8 10 25 40 21 24 26 27 25 26 29 34 40 45 49 54 57 55 57 53 46
4 2 3 9 6 7 8 8 8 8 12 34 24 12 6 5 6 4 8 5 5 5 2 12 6 20 17 25 32 39 40 36 34 32 33 34 39 42 43 44 40 36 39 41
5 5 7 7 6 3 7 12 16 13 42 28 18 12 5 4 7 4 7 7 7 11 10 6 10 7 19 34 42 42 45 47 45 41 39 36 37 38 37 34 34 31 27 32
9 10 3 5 3 4 11 22 14 36 39 21 10 6 7 2 7 5 13 12 14 8 7 21 14 6 34 43 43 48 46 42 43 47 46 43 38 36 36 34 32 33 35 33
13 11 28 31 7 9 16 30 31 49 31 6 7 9 13 6 4 5 10 12 8 12 15 11 21 38 43 46 58 61 52 45 49 51 48 45 43 42 36 31 28 35 35 35
Wind_Direction_850mb
213 215 211 202 196 194 188 169 162 178 183 160 267 160 158 164 268 203 117 102 111 156 169 169 188 196 192 190 167 177 200 133 152 191 181 285 287 180 147 133 204 232 159 274
200 205 206 200 193 197 180 163 128 178 173 173 223 18 173 187 193 272 146 116 125 156 154 158 176 163 207 179 172 171 174 182 112 28 308 347 225 191 166 120 104 196 152 259
222 219 205 202 198 199 193 139 153 197 193 227 187 193 175 184 197 263 234 116 113 106 157 3 169 162 158 179 183 182 153 148 162 187 199 139 192 204 202 205 233 170 215 214
321 262 223 211 202 200 190 166 196 174 181 196 190 173 177 177 158 196 259 78 165 144 143 110 173 134 110 103 185 158 136 174 158 181 346 175 207 193 192 218 227 218 198 197
359 340 294 228 203 199 188 164 152 179 193 163 187 193 193 192 164 150 249 161 181 168 156 191 174 139 154 177 183 142 179 123 116 338 37 2 254 218 217 225 221 228 281 268
331 318 307 234 207 186 184 182 163 167 166 177 181 197 196 196 168 207 214 185 156 188 215 164 171 146 158 160 167 154 145 131 119 217 350 53 283 195 198 199 186 202 226 231
349 339 288 241 207 196 187 166 167 124 166 177 202 200 199 187 198 176 175 177 178 164 147 113 108 84 86 82 51 153 144 127 110 153 49 232 255 313 206 202 203 211 218 208
1 360 358 48 188 198 171 173 177 170 180 214 214 218 202 200 174 59 180 173 177 145 126 106 92 360 40 12 22 68 106 125 115 152 191 302 271 194 169 175 240 217 213 228
13 6 14 185 163 156 175 185 193 191 136 224 211 200 185 174 169 108 63 132 144 163 91 95 148 178 161 173 94 26 97 83 133 117 153 214 246 207 168 104 260 224 206 225
30 15 7 33 219 196 190 191 205 210 201 240 188 183 180 155 130 104 125 150 140 155 105 120 143 193 171 161 165 168 159 112 196 173 216 282 235 174 146 150 242 214 204 223
41 30 32 3 353 209 202 202 198 201 191 307 177 156 156 144 159 158 155 123 104 51 114 130 170 151 204 105 170 172 165 165 183 109 135 262 172 140 173 198 168 155 186 225
43 40 42 30 35 81 176 162 208 213 210 135 103 127 147 163 163 142 164 120 131 152 114 150 121 115 119 145 204 331 208 188 177 190 210 155 182 199 194 193 195 215 232 230
42 44 48 63 91 88 111 124 132 146 145 73 89 85 106 143 156 158 144 147 132 135 137 151 140 126 144 162 233 110 244 203 199 103 240 211 207 212 222 225 241 251 251 233
47 46 47 55 66 72 68 73 76 89 97 99 55 82 93 98 140 138 135 138 124 124 100 82 113 119 196 194 156 184 189 143 168 266 186 350 256 227 230 237 243 251 260 267
59 43 35 43 47 57 62 56 70 87 87 114 106 71 73 99 105 140 131 148 143 115 70 70 174 113 112 3 57 250 186 177 174 228 180 206 255 261 257 251 256 261 268 271
63 42 29 28 11 3 7 71 71 89 102 88 49 58 56 85 106 125 125 142 133 98 99 102 95 120 106 131 219 235 202 214 225 232 252 290 282 283 274 280 279 279 272 267
54 54 40 35 34 39 79 91 41 42 57 109 85 22 30 54 73 79 74 79 75 80 103 62 87 86 89 88 231 177 211 242 245 255 274 276 274 274 281 285 286 281 276 268
69 54 51 45 46 54 63 71 51 42 60 63 100 46 29 37 37 48 45 56 72 50 84 96 106 105 103 250 252 270 269 253 260 264 262 265 275 279 280 283 279 274 272 272
4 2 3 18 32 57 50 58 64 56 72 102 80 122 205 55 55 51 59 50 52 41 81 83 125 257 228 229 239 256 266 252 265 278 275 273 273 277 278 278 278 275 277 281
331 356 358 31 10 4 354 182 172 80 44 58 89 115 79 90 92 70 105 32 88 86 269 351 207 250 251 253 253 263 271 275 277 272 274 270 267 270 277 279 282 281 283 288
254 305 11 36 18 1 30 33 38 351 48 43 82 101 128 137 114 171 38 176 63 79 267 154 279 269 244 272 268 275 278 279 279 280 284 280 276 278 280 281 283 284 283 283
174 145 86 65 16 36 77 12 356 36 170 129 125 112 103 114 99 93 98 116 58 233 158 70 270 255 279 319 324 312 295 285 289 291 290 289 289 290 289 289 288 286 284 283
178 146 137 122 344 37 119 185 266 284 177 164 148 100 105 126 133 78 89 86 207 116 62 231 237 277 321 8 6 358 352 336 321 314 305 297 294 292 290 289 289 287 283 278
241 144 322 153 286 225 185 184 182 156 155 147 134 106 130 118 67 141 95 245 74 51 332 237 249 293 13 22 9 357 351 343 338 332 326 324 320 313 307 304 301 300 290 272
222 156 232 214 191 172 159 146 133 128 144 138 118 82 95 357 80 62 103 43 255 209 230 232 232 50 33 8 352 347 341 330 326 327 325 326 326 323 321 310 307 306 300 290
219 216 194 157 158 198 199 183 151 152 153 124 91 101 65 287 128 90 214 141 221 236 218 253 267 327 341 346 345 336 330 328 323 318 313 317 320 324 324 319 308 297 293 284
201 218 217 193 262 201 184 177 170 163 161 153 131 147 202 103 82 248 190 209 221 215 243 305 311 321 333 334 331 327 323 319 323 323 316 302 306 315 319 323 311 296 289 284